Location: Esp�n
(42.4593°N, 0.2047°W)
Time: 09:09:51
(UTC+00:00)

COBE Rocket - Pass Details

Date: 07 June 2020
Orbit: 679 x 782 km, 97.1° (Epoch: 11 July)

Event Time Altitude Azimuth Distance (km) Brightness Sun altitude
Exits shadow 03:17:14 - 183° (S) 2,762 6.4 -10.5°
Reaches altitude 10° 03:18:28 10° 186° (S) 2,280 6.0 -10.3°
Maximum altitude 03:23:23 51° 262° (W) 960 4.2 -9.6°
Drops below altitude 10° 03:28:26 10° 338° (NNW) 2,339 6.8 -9.0°
Sets 03:30:51 0° 344° (NNW) 3,277 7.6 -8.6°
